Simultaneous Nadir Overpasses (SNOs) Predictions

Prediction of SNOs between AQUA and NPP Satellite Orbit:

Table of predicted SNOs for the next 14.0 days since TLE Epoch: 10/20/2017
Index Date (AQUA) Time (AQUA) Lat,Lon (AQUA) SZA (AQUA ) Date (NPP) Time (NPP) Lat,Lon (NPP) SZA (NPP ) Distance(km) Time Diff (sec)
1 10/20/2017 21:48:27 76.03, 91.98 106.74 10/20/2017 21:48:19 76.04, 92.07 106.72 2.82 8
2 10/20/2017 22:37:37 -76.88, -97.56 74.18 10/20/2017 22:38:46 -76.88, -97.52 74.25 0.85 69
3 10/23/2017 13:15:54 -74.92, 37.05 71.21 10/23/2017 13:14:54 -74.91, 37.04 71.15 0.38 60
4 10/23/2017 14:04:51 76.31,-151.25 107.33 10/23/2017 14:05:08 76.32,-151.18 107.30 1.94 17
5 10/26/2017 05:32:16 -75.31, 153.97 70.73 10/26/2017 05:31:41 -75.30, 153.93 70.69 1.30 35
6 10/26/2017 06:21:14 76.63, -34.30 107.86 10/26/2017 06:21:56 76.64, -34.24 107.81 1.62 42
7 10/28/2017 21:48:38 -75.69, -89.07 70.27 10/28/2017 21:48:28 -75.68, -89.13 70.25 1.60 10
8 10/28/2017 22:37:36 76.99, 82.86 108.33 10/28/2017 22:38:43 76.99, 82.93 108.26 1.88 67
9 10/31/2017 13:15:48 75.21,-142.18 111.07 10/31/2017 13:14:46 75.21,-142.11 111.11 2.24 62
10 10/31/2017 14:04:57 -76.15, 28.22 69.92 10/31/2017 14:05:12 -76.15, 28.18 69.92 1.25 15
11 11/03/2017 05:32:17 75.22, -26.26 111.87 11/03/2017 05:31:41 75.21, -26.35 111.93 2.70 36




NCC Satellite Simultaneous Nadir Overpasses (SNOs) Prediction Service
